Other Public Products
Issued by NWS Grand Forks, ND

Home | Current Version | Previous Version | Text Only | Print | Product List | Glossary Off
Versions: 1 2 3 4 5 6 7 8 9 10 11 12 13 14 15 16 17 18 19 20 21 22 23 24 25 26 27 28 29 30 31 32 33 34 35 36 37 38 39 40 41 42 43 44 45 46 47 48 49 50

000
FPUS83 KFGF 272231
OPUFGF
PRAIRIE TO PINES WEATHER ROUNDUP
NATIONAL WEATHER SERVICE EASTERN NORTH DAKOTA/GRAND FORKS ND
400 PM CST FRI FEB 27 2015

 **SATELLITE DATA USED TO AUGMENT SKY COVER AT AUTOMATED STATIONS**
 *****  WEATHER ACROSS EASTERN NORTH DAKOTA  *****

CITY           SKY/WX    TMP DP  RH WIND       PRES   REMARKS
GRAND FORKS    MOSUNNY   17   3  54 SW12      30.37F WCI   4
GRAND FORKS AF SUNNY     18   2  48 SW13      30.36F WCI   5
GRAND CITY NWS   N/A     19 N/A N/A SW14        N/A  WCI   6
BUXTON           N/A     17   5  60 S7          N/A  WCI   7
DEVILS LAKE    SUNNY     12   1  62 SW12      30.28F WCI  -2
FARGO          SUNNY     17   1  49 SW8       30.42F WCI   7
WAHPETON ARPT  CLEAR     18   0  45 SW7       30.43F WCI   8
$$

 *****  WEATHER ACROSS CENTRAL AND WESTERN NORTH DAKOTA  *****

CITY           SKY/WX    TMP DP  RH WIND       PRES   REMARKS
JAMESTOWN      SUNNY     15   1  53 S14       30.30F WCI   0
BISMARCK       SUNNY     20   5  52 S15       30.24F WCI   6
MINOT          SUNNY     18   2  49 S15       30.17F WCI   4
MINOT AFB      SUNNY     16   5  62 S12       30.17F WCI   3
GARRISON         N/A     19   5  54 S15       30.15F WCI   5
WILLISTON      SUNNY     25   5  42 SE10      30.07F WCI  15
DICKINSON      SUNNY     25   5  42 S18       30.04F WCI  11
HETTINGER      SUNNY     26   5  40 S15G24    30.06F WCI  14
$$

 *****  OTHER OBSERVATIONS NORTHEAST NORTH DAKOTA  *****

CITY           SKY/WX    TMP DP  RH WIND       PRES   REMARKS
WALHALLA         N/A     14   1  57 SW10G16   30.32S WCI   1
LANGDON        NOT AVBL
CAVALIER       FAIR      16   1  53 SW9       30.33F WCI   4
GRAFTON        NOT AVBL
CANDO          FAIR      14   1  57 SW12      30.26F WCI   0
FORT TOTTEN      N/A     14  -2  49 SW10      29.95S WCI   1
ROLLA          FAIR      10   1  67 SW9       30.21F WCI  -2
RUGBY          FAIR      14   3  62 S10       30.23F WCI   1
 ***** THE ABOVE OBSERVATIONS ARE NON NWS ARE NOT QUALITY
        CONTROLLED AND MAY MIS-REPORT RAIN FOR SNOW...
$$

 *****  OTHER OBSERVATIONS SOUTHEAST NORTH DAKOTA *****

CITY           SKY/WX    TMP DP  RH WIND       PRES   REMARKS
COOPERSTOWN    NOT AVBL
VALLEY CITY    FLURRIES  14   1  57 S13       30.33F WCI   0
OAKES            N/A     14   3  62 S13       30.36F WCI   0
GWINNER        CLEAR     18   3  53 S13       30.39F WCI   4
SHEYENNE NWR     N/A     17   0  46 S8        29.95  WCI   7
BUFFALO        NOT AVBL
WYNDMERE         N/A     16   1  53 SW9         N/A  WCI   4
 ***** THE ABOVE OBSERVATIONS ARE NON NWS ARE NOT QUALITY
       CONTROLLED AND MAY MIS-REPORT RAIN FOR SNOW...
$$

  *****  WEATHER ACROSS NORTHERN MINNESOTA  *****

CITY           SKY/WX    TMP DP  RH WIND       PRES   REMARKS
FLAG ISLAND    SUNNY     10   1  67 S13       30.27S WCI  -5
WARROAD        SUNNY     14  -2  48 W13       30.32S WCI   0
ROSEAU         SUNNY     14   1  57 SW12      30.33S WCI   0
HALLOCK        SUNNY     18   3  53 SW10      30.35S WCI   6
THF RVR FALLS  SUNNY     14   3  62 S13       30.35F WCI   0
HALSTAD          N/A     17   0  46 SW13        N/A  WCI   3
FOSSTON        SUNNY     16   5  62 SW12      30.37F WCI   3
BAUDETTE       SUNNY     17  -4  39 SW12      30.30S WCI   4
WASKISH        SUNNY     14  -2  48 SW12      30.35S WCI   0
CROOKSTON      SUNNY     16   7  67 SW15      30.39F WCI   1
$$
  *****  WEATHER ACROSS CENTRAL AND WEST MINNESOTA  *****

CITY           SKY/WX    TMP DP  RH WIND       PRES   REMARKS
BEMIDJI        SUNNY     15  -6  39 W10       30.34F WCI   3
PARK RAPIDS    SUNNY     17  -4  39 VRB7      30.36S WCI   8
WADENA         SUNNY     12   0  57 SW10      30.40S WCI  -1
DETROIT LAKES  SUNNY     16   1  53 SW7       30.39F WCI   6
MOORHEAD       SUNNY     18  -6  35 SW12      30.42F WCI   5
FERGUS FALLS   SUNNY     16  -2  45 SW7       30.45F WCI   6
ELBOW LAKE     FAIR      13   2  61 SW6       30.43S WCI   4
MORRIS MN      SUNNY     16   0  48 SW5       30.43F WCI   9
STAPLES        SUNNY     16  -6  38 W7        30.40S WCI   6
WHEATON        SUNNY     12  -2  52 S6        30.45F WCI   3
$$
  *****  WEATHER ELSEWHERE ACROSS MINNESOTA  *****

CITY           SKY/WX    TMP DP  RH WIND       PRES   REMARKS
DULUTH         SUNNY     18  -6  34 W10       30.35S WCI   6
INTRNTL FALLS  SUNNY     17  -7  34 W9        30.31S WCI   6
ELY            SUNNY     19 -11  25 SW9       30.30S WCI   9
CLOQUET        SUNNY     18  -9  29 SW10G20   30.37S WCI   6
BRAINERD       SUNNY     17  -4  39 SW9       30.40F WCI   6
HIBBING        SUNNY     20 -10  26 VRB6      30.34S WCI  12
ALEXANDRIA     SUNNY     12  -3  51 SW9       30.42S WCI   0
SAINT CLOUD    SUNNY     17  -3  41 W8        30.46S WCI   7
MINNEAPOLIS    SUNNY     14  -1  51 SW8       30.51S WCI   3
$$

  *****  WEATHER ACROSS SOUTH DAKOTA  *****

CITY           SKY/WX    TMP DP  RH WIND       PRES   REMARKS
SIOUX FALLS    SUNNY     14   2  58 S7        30.44F WCI   4
BROOKINGS      NOT AVBL
WATERTOWN      SUNNY     11  -1  58 S8        30.38F WCI  -1
HURON          SUNNY     18   4  54 SE10      30.39F WCI   6
SISSETON         N/A     15  -1  49 W6        30.41F WCI   6
ABERDEEN       SUNNY     15   3  59 S10       30.39F WCI   2
MITCHELL       SUNNY     24  -2  32 S13       30.40F WCI  12
PIERRE         SUNNY     27  -6  23 SE17      30.24F WCI  14
MOBRIDGE       SUNNY     21   6  52 S16G25    30.23F WCI   7
RAPID CITY     CLOUDY    23  12  62 S22       30.03F WCI   8
$$

  *****  SOME WEATHER IN NEARBY STATES *****

CITY           SKY/WX    TMP DP  RH WIND       PRES   REMARKS
GLASGOW MT     MOSUNNY   21   5  50 CALM      30.02S
GREAT FALLS MT CLOUDY    19  12  74 NW5       30.01R WCI  12
CHEYENNE WY    LGT SNOW  12   4  70 S15       29.85S WCI  -4
SCOTTSBLUFF NE CLOUDY    23   8  52 S21G30    30.01F WCI   8
OMAHA NE       MOSUNNY   19   2  47 CALM      30.53F
DES MOINES IA  MOSUNNY   13  -3  49 SW3       30.58F
DAVENPORT IA   SUNNY      7  -3  64 W7        30.62S WCI  -5
CHICAGO IL     SUNNY     13  -4  46 W10       30.58F WCI   0
EAU CLAIRE WI  SUNNY     13  -2  51 W10       30.51S WCI   0
LA CROSSE WI   SUNNY     16  -3  43 NW7       30.55F WCI   6
$$

  *****  SOME NATIONAL WEATHER *****

CITY           SKY/WX    TMP DP  RH WIND       PRES   REMARKS
LA GUARDIA NY  PTCLDY    30   7  37 NW14      30.43R WCI  19
RALEIGH NC     MOSUNNY   44  22  41 N6        30.41R
ATLANTA GA     MOSUNNY   47  18  31 NW8G17    30.35S
NEW ORLEANS LA MOSUNNY   51  34  52 N10       30.32S
OKLAHOMA CITY  FLURRIES  19  12  73 E8        30.45F WCI   9
ALBUQUERQUE NM LGT SNOW  26  22  84 N7        29.90F FOG     WCI  18
SALT LAKE CITY PTSUNNY   41  26  55 S9        29.72F
LOS ANGELES CA PTSUNNY   63  51  65 SW10      29.79F
BOISE ID       MOSUNNY   51  29  42 SE14      29.65F
SEATTLE WA     CLOUDY    50  42  74 N16       29.76S
$$

*** WEATHER ACROSS MANITOBA...SASKATCHEWAN AND ONTARIO ***
                ***ONTARIO***

CITY           SKY/WX    TMP DP  RH WIND       PRES   REMARKS
GERALDTON      PTSUNNY   14  -8  37 W12G22    30.16F WCI   0
THUNDER BAY    MOSUNNY   21  -8  27 W15       30.30F WCI   8
SIOUX LOOKOUT  PTSUNNY   16  -8  35 SW13      30.18F WCI   2
TORONTO        MOSUNNY   12   0  57 W17       30.53R WCI  -5
BIG TROUT LK   CLOUDY    12   1  62 NW15G22   29.95R WCI  -4
PICKLE LAKE    PTSUNNY   18  -6  35 W15G28    30.04S WCI   3
DRYDEN         PTSUNNY   16  -8  35 SW14G23   30.20S WCI   1
KENORA         PTSUNNY   14  -4  44 SW10      30.23F WCI   1
$$
                *** MANITOBA***

CITY           SKY/WX    TMP DP  RH WIND       PRES   REMARKS
BRANDON        CLOUDY     9   0  66 SW7       30.22F WCI  -3
DAUPHIN        SUNNY     14   3  62 W10       30.18S WCI   1
ISLAND LAKE    PTSUNNY   12   0  57 W10       30.02R WCI  -1
PILOT MOUND      N/A      9   1  72 S14         N/A  WCI  -8
THE PAS        MOSUNNY   12   1  62 NW10      30.11S WCI  -1
THOMPSON       FLURRIES  12   1  62 NW14G20   30.01R WCI  -3
WINNIPEG       CLOUDY    14   1  57 SW15      30.30F WCI  -1
LYNN LAKE      CLOUDY    12   5  73 NW12G18   30.01S WCI  -2
CHURCHILL      CRYSTALS   0  -6  78 NW13      29.97R WCI -18
GILLAM         CLOUDY     9   0  66 W12       29.98R WCI  -6
$$
                ***SASKATCHEWAN***

CITY           SKY/WX    TMP DP  RH WIND       PRES   REMARKS
ESTEVAN        PTSUNNY   16   3  57 S9        30.11F WCI   4
KINDERSLEY     FLURRIES  10   5  79 NW12      30.10R WCI  -4
LLOYDMINSTER   FLURRIES  10   3  72 NW13      30.13S WCI  -5
PRINCE ALBERT  PTSUNNY    9  -2  61 NW3       30.13F
REGINA         CLOUDY     5  -2  72 SE5       30.10S WCI  -4



USA.gov is the U.S. government's official web portal to all federal, state and local government web resources and services.